Location: Bayshore Village Mobile Home Park
(26.6945°N, 81.8642°W)
Time: 23:44:42
(UTC+00:00)

NOSS 3-4 (A) - Pass Details

Date: 17 June 2021
Orbit: 869 x 1343 km, 63.4° (Epoch: 31 July)

Event Time Altitude Azimuth Distance (km) Brightness Sun altitude
Exits shadow 09:51:31 - 215° (SW) 2,631 5.2 -9.1°
Reaches altitude 10° 09:51:50 10° 216° (SW) 2,508 5.1 -9.0°
Maximum altitude 09:57:32 68° 298° (WNW) 937 3.4 -8.0°
Drops below altitude 10° 10:03:26 10° 22° (NNE) 2,585 6.6 -6.8°
Sets 10:06:02 0° 25° (NNE) 3,574 7.5 -6.3°
